Location: Hoyos del Collado
(40.3594°N, 5.2003°W)
Time: 15:10:56
(UTC+00:00)

Envisat - Visible Passes

Search period start: 13 July 2025 00:00
Search period end: 23 July 2025 00:00
Orbit: 761 x 763 km, 98.3° (Epoch: 13 July)

Date Brightness Start Highest point End Pass type
(mag) Time Alt. Az. Time Alt. Az. Time Alt. Az.
13 Jul 5.3 01:56:37 10° NE 01:59:32 15° E 02:02:26 10° SE visible
13 Jul 3.1 03:33:51 10° N 03:38:51 60° WNW 03:42:36 17° SSW visible
14 Jul 3.4 02:56:10 10° NNE 03:01:11 60° E 03:04:24 22° S visible
15 Jul 4.7 02:19:06 10° NE 02:23:19 26° E 02:26:13 16° SE visible
15 Jul 3.8 03:57:41 10° N 04:02:17 36° WNW 04:06:21 13° SW visible
16 Jul 5.5 01:44:03 10° ENE 01:45:14 11° E 01:46:24 10° ESE visible
16 Jul 2.9 03:19:39 10° N 03:24:45 82° WNW 03:28:09 21° SSW visible
17 Jul 3.9 02:42:10 10° NNE 02:47:01 43° E 02:49:58 21° SSE visible
17 Jul 4.4 04:21:47 10° NNW 04:25:38 22° WNW 04:29:29 10° WSW visible
18 Jul 5.1 02:05:30 10° NE 02:09:04 19° E 02:11:46 13° SE visible
18 Jul 3.4 03:43:22 10° N 03:48:14 48° WNW 03:51:54 17° SW visible
19 Jul 3.1 03:05:32 10° NNE 03:10:37 74° ESE 03:13:42 24° S visible
20 Jul 4.4 02:28:17 10° NNE 02:32:49 32° E 02:35:30 20° SE visible
20 Jul 4.1 04:07:17 10° N 04:11:38 29° WNW 04:15:38 12° SW visible
21 Jul 5.4 01:52:13 10° ENE 01:54:47 14° E 01:57:19 10° ESE visible
21 Jul 3.0 03:29:07 10° N 03:34:09 66° WNW 03:37:26 22° SSW visible
22 Jul 3.5 02:51:29 10° NNE 02:56:28 54° E 02:59:14 25° SSE visible
22 Jul 4.6 04:31:33 10° NNW 04:34:57 18° WNW 04:38:21 10° WSW visible
